sat.trackr.live / text

‹ back to catalog

STARLINK-11616 [DTC]

NORAD 63137 · 2025-043F

PAYLOAD ACTIVE UNKNOWN

§ Identity

Operator
Country
US
Launch date
2025-03-03
Launch site
AFETR
Launch vehicle
Mass (kg)
RCS (m²)

Purposes: comms

External: N2YO · Heavens-Above · Gunter

§ Orbital elements

Epoch: 2026-05-25T00:56:52.768032Z

Period
91.67 min
Inclination
42.9988°
Eccentricity
0.0001459
Mean motion
15.70898548 rev/d
Perigee alt
355.3 km
Apogee alt
357.3 km
Semi-major
6,734.5 km
B*
1.1666e-3
RAAN
150.1766°
Arg perigee
258.4982°
Mean anomaly
101.5721°
Rev number
7,148

§ Raw data

STARLINK-11616 [DTC]1 63137U 25043F   26145.03949963  .00152390  00000+0  11666-2 0  99962 63137  42.9988 150.1766 0001459 258.4982 101.5721 15.70898548 71487

JSON: /api/v1/satellites/63137 · /tle

For live sub-satellite position, see the globe view (requires WebGL).

§ Visibility from observer

Set your observer location to see the next 7 days of passes ≥ 10°. The values pass through the URL so the page stays shareable.

No JS? Fill the form by hand. The geolocation button needs JavaScript.